VKG1649 EFHK-ESGG

Flight info

Callsign VKG1649
Flight time 1h 11m
Altitude 36000
Route KUVEM Y366 USITU DCT TUSNI DCT MOXAM
Aircraft A321/M-SDE3FGHIRWY/LB1

Departure

Time 2026-04-22 14:23
Airport Helsinki Vantaa Airport (EFHK)

Arrival

Time 2026-04-22 15:35
Airport Göteborg Landvetter Airport (ESGG)
Time Latitude Longitude Altitude Speed Heading
2026-04-22 13:49 60.31829 24.97057 174 ft 0 kts 243°
2026-04-22 14:12 60.31834 24.97077 174 ft 4 kts 250°
2026-04-22 14:13 60.31839 24.97129 174 ft 4 kts 279°
2026-04-22 14:13 60.31830 24.97177 175 ft 4 kts 310°
2026-04-22 14:13 60.31814 24.97205 175 ft 0 kts 333°
2026-04-22 14:15 60.31816 24.97203 175 ft 1 kts 333°
2026-04-22 14:15 60.31821 24.97197 175 ft 1 kts 333°
2026-04-22 14:16 60.31833 24.97185 175 ft 3 kts 333°
2026-04-22 14:16 60.31864 24.97153 174 ft 9 kts 332°
2026-04-22 14:16 60.31942 24.97072 173 ft 14 kts 333°
2026-04-22 14:16 60.32034 24.96977 172 ft 15 kts 332°
2026-04-22 14:17 60.32125 24.96873 170 ft 12 kts 330°
2026-04-22 14:17 60.32193 24.96792 169 ft 12 kts 330°
2026-04-22 14:17 60.32268 24.96706 167 ft 13 kts 330°
2026-04-22 14:17 60.32350 24.96610 166 ft 14 kts 329°
2026-04-22 14:18 60.32436 24.96508 165 ft 15 kts 330°
2026-04-22 14:18 60.32525 24.96405 165 ft 14 kts 330°
2026-04-22 14:18 60.32610 24.96305 164 ft 15 kts 329°
2026-04-22 14:18 60.32703 24.96198 161 ft 16 kts 330°
2026-04-22 14:19 60.32809 24.96074 156 ft 19 kts 329°
2026-04-22 14:19 60.32930 24.95934 153 ft 21 kts 330°
2026-04-22 14:19 60.33048 24.95796 155 ft 19 kts 330°
2026-04-22 14:19 60.33137 24.95647 160 ft 14 kts 317°
2026-04-22 14:20 60.33210 24.95434 168 ft 5 kts 265°
2026-04-22 14:20 60.33193 24.95359 171 ft 7 kts 230°
2026-04-22 14:20 60.33158 24.95277 174 ft 9 kts 229°
2026-04-22 14:21 60.33107 24.95017 182 ft 12 kts 272°
2026-04-22 14:21 60.33113 24.94845 183 ft 12 kts 273°
2026-04-22 14:22 60.33120 24.94459 194 ft 14 kts 270°
2026-04-22 14:22 60.33074 24.94293 205 ft 12 kts 224°
2026-04-22 14:22 60.33037 24.94216 195 ft 30 kts 227°
2026-04-22 14:23 60.32732 24.93542 183 ft 98 kts 227°
2026-04-22 14:23 60.32147 24.92260 172 ft 148 kts 228°
2026-04-22 14:23 60.31435 24.90715 663 ft 148 kts 235°
2026-04-22 14:23 60.30744 24.89141 1253 ft 152 kts 238°
2026-04-22 14:24 60.30171 24.87378 1794 ft 148 kts 255°
2026-04-22 14:24 60.29886 24.85398 2287 ft 150 kts 269°
2026-04-22 14:24 60.29876 24.83198 2513 ft 165 kts 283°
2026-04-22 14:24 60.30148 24.80829 2665 ft 183 kts 289°
2026-04-22 14:25 60.30347 24.78141 2785 ft 211 kts 271°
2026-04-22 14:25 60.29885 24.75080 3038 ft 244 kts 254°
2026-04-22 14:25 60.29224 24.71845 3728 ft 254 kts 254°
2026-04-22 14:25 60.28539 24.68520 4565 ft 261 kts 255°
2026-04-22 14:26 60.27834 24.65098 5352 ft 267 kts 255°
2026-04-22 14:26 60.27111 24.61600 6154 ft 273 kts 254°
2026-04-22 14:26 60.26374 24.58039 6901 ft 278 kts 255°
2026-04-22 14:26 60.25628 24.54415 7709 ft 281 kts 255°
2026-04-22 14:27 60.24872 24.50749 8489 ft 285 kts 255°
2026-04-22 14:27 60.24245 24.46981 9276 ft 282 kts 266°
2026-04-22 14:27 60.23877 24.43124 9979 ft 288 kts 267°
2026-04-22 14:27 60.23497 24.39008 10191 ft 311 kts 266°
2026-04-22 14:28 60.23090 24.34600 10494 ft 329 kts 266°
2026-04-22 14:28 60.22655 24.30031 11117 ft 335 kts 266°
2026-04-22 14:28 60.22201 24.25396 11816 ft 339 kts 266°
2026-04-22 14:28 60.21739 24.20721 12522 ft 342 kts 267°
2026-04-22 14:29 60.21275 24.16010 13246 ft 346 kts 267°
2026-04-22 14:29 60.20804 24.11229 13907 ft 349 kts 267°
2026-04-22 14:29 60.20327 24.06414 14540 ft 353 kts 268°
2026-04-22 14:29 60.19841 24.01570 15117 ft 356 kts 268°
2026-04-22 14:30 60.19349 23.96661 15734 ft 359 kts 268°
2026-04-22 14:30 60.18846 23.91701 16345 ft 364 kts 268°
2026-04-22 14:30 60.18292 23.86719 16963 ft 368 kts 267°
2026-04-22 14:30 60.17695 23.81685 17570 ft 372 kts 266°
2026-04-22 14:31 60.17074 23.76617 18168 ft 376 kts 266°
2026-04-22 14:31 60.16441 23.71497 18667 ft 379 kts 266°
2026-04-22 14:31 60.15805 23.66338 19184 ft 382 kts 266°
2026-04-22 14:31 60.15171 23.61146 19681 ft 385 kts 266°
2026-04-22 14:32 60.14534 23.55905 20184 ft 388 kts 266°
2026-04-22 14:32 60.13894 23.50625 20681 ft 390 kts 266°
2026-04-22 14:32 60.13250 23.45315 21138 ft 393 kts 265°
2026-04-22 14:32 60.12597 23.39953 21601 ft 397 kts 265°
2026-04-22 14:33 60.11935 23.34554 22061 ft 400 kts 265°
2026-04-22 14:33 60.11261 23.29107 22533 ft 403 kts 265°
2026-04-22 14:33 60.10583 23.23649 23014 ft 406 kts 265°
2026-04-22 14:33 60.09896 23.18125 23433 ft 409 kts 264°
2026-04-22 14:34 60.09206 23.12602 23808 ft 412 kts 264°
2026-04-22 14:34 60.08501 23.06991 24166 ft 415 kts 264°
2026-04-22 14:34 60.07791 23.01369 24525 ft 418 kts 264°
2026-04-22 14:34 60.07074 22.95711 24889 ft 421 kts 264°
2026-04-22 14:35 60.06362 22.90088 25239 ft 423 kts 264°
2026-04-22 14:35 60.05633 22.84354 25624 ft 426 kts 264°
2026-04-22 14:35 60.04899 22.78591 25986 ft 429 kts 264°
2026-04-22 14:35 60.04157 22.72785 26326 ft 432 kts 264°
2026-04-22 14:36 60.03411 22.66953 26678 ft 435 kts 264°
2026-04-22 14:36 60.02658 22.61077 27026 ft 438 kts 264°
2026-04-22 14:36 60.01890 22.55160 27380 ft 440 kts 263°
2026-04-22 14:36 60.01114 22.49228 27705 ft 443 kts 263°
2026-04-22 14:37 60.00330 22.43238 28032 ft 446 kts 263°
2026-04-22 14:37 59.99539 22.37219 28299 ft 449 kts 263°
2026-04-22 14:37 59.98744 22.31183 28644 ft 451 kts 262°
2026-04-22 14:37 59.97941 22.25117 28955 ft 453 kts 262°
2026-04-22 14:38 59.97132 22.19024 29278 ft 456 kts 262°
2026-04-22 14:38 59.96315 22.12894 29578 ft 458 kts 262°
2026-04-22 14:38 59.95490 22.06732 29870 ft 460 kts 262°
2026-04-22 14:38 59.94670 22.00633 30126 ft 462 kts 262°
2026-04-22 14:39 59.93836 21.94433 30362 ft 465 kts 262°
2026-04-22 14:39 59.92990 21.88190 30617 ft 467 kts 262°
2026-04-22 14:39 59.92134 21.81900 30869 ft 470 kts 262°
2026-04-22 14:40 59.90699 21.71424 31377 ft 471 kts 262°
2026-04-22 14:40 59.89537 21.63002 31837 ft 472 kts 262°
2026-04-22 14:40 59.88664 21.56689 32132 ft 472 kts 262°
2026-04-22 14:40 59.87789 21.50386 32465 ft 472 kts 262°
2026-04-22 14:41 59.86912 21.44096 32807 ft 473 kts 262°
2026-04-22 14:41 59.86030 21.37768 33131 ft 473 kts 262°
2026-04-22 14:41 59.85193 21.31443 33464 ft 471 kts 264°
2026-04-22 14:41 59.84501 21.25090 33799 ft 469 kts 267°
2026-04-22 14:42 59.83912 21.18727 34093 ft 468 kts 268°
2026-04-22 14:42 59.83366 21.12364 34381 ft 467 kts 268°
2026-04-22 14:42 59.82816 21.05983 34687 ft 467 kts 268°
2026-04-22 14:42 59.82245 20.99715 34982 ft 467 kts 268°
2026-04-22 14:43 59.81629 20.93358 35308 ft 468 kts 267°
2026-04-22 14:43 59.80987 20.87030 35599 ft 467 kts 266°
2026-04-22 14:43 59.80328 20.80699 35898 ft 467 kts 266°
2026-04-22 14:43 59.79667 20.74401 36118 ft 467 kts 266°
2026-04-22 14:44 59.79002 20.68063 36361 ft 467 kts 266°
2026-04-22 14:44 59.78344 20.61752 36628 ft 467 kts 266°
2026-04-22 14:44 59.77688 20.55427 36895 ft 467 kts 266°
2026-04-22 14:44 59.77033 20.49130 37133 ft 467 kts 266°
2026-04-22 14:45 59.76374 20.42826 37384 ft 466 kts 266°
2026-04-22 14:45 59.75709 20.36527 37627 ft 466 kts 266°
2026-04-22 14:45 59.75042 20.30233 37830 ft 467 kts 266°
2026-04-22 14:45 59.74373 20.23933 37982 ft 468 kts 266°
2026-04-22 14:46 59.73020 20.11286 38002 ft 469 kts 266°
2026-04-22 14:46 59.71650 19.98655 37984 ft 470 kts 265°
2026-04-22 14:47 59.70494 19.88089 38012 ft 471 kts 265°
2026-04-22 14:47 59.68873 19.73356 38015 ft 471 kts 265°
2026-04-22 14:48 59.67460 19.60686 38017 ft 472 kts 265°
2026-04-22 14:48 59.66270 19.50079 38033 ft 472 kts 265°
2026-04-22 14:49 59.64834 19.37396 38048 ft 472 kts 265°
2026-04-22 14:49 59.63391 19.24734 38034 ft 472 kts 264°
2026-04-22 14:50 59.61926 19.12068 38023 ft 473 kts 264°
2026-04-22 14:50 59.60446 18.99405 38022 ft 474 kts 264°
2026-04-22 14:51 59.58964 18.86821 38026 ft 474 kts 264°
2026-04-22 14:51 59.57463 18.74141 38042 ft 475 kts 264°
2026-04-22 14:52 59.55947 18.61461 38034 ft 475 kts 264°
2026-04-22 14:52 59.54415 18.48775 38014 ft 475 kts 263°
2026-04-22 14:53 59.52875 18.36099 38029 ft 476 kts 263°
2026-04-22 14:53 59.51321 18.23417 38035 ft 476 kts 263°
2026-04-22 14:54 59.49746 18.10753 38071 ft 476 kts 263°
2026-04-22 14:54 59.48155 17.98090 38069 ft 478 kts 263°
2026-04-22 14:55 59.46551 17.85385 38069 ft 479 kts 263°
2026-04-22 14:55 59.44934 17.72671 37998 ft 480 kts 262°
2026-04-22 14:56 59.43303 17.59953 38026 ft 480 kts 262°
2026-04-22 14:56 59.41654 17.47223 38034 ft 481 kts 262°
2026-04-22 14:57 59.39986 17.34499 38044 ft 481 kts 262°
2026-04-22 14:57 59.38310 17.21774 38061 ft 482 kts 262°
2026-04-22 14:58 59.36638 17.09143 38067 ft 482 kts 262°
2026-04-22 14:58 59.34935 16.96438 38037 ft 482 kts 260°
2026-04-22 14:59 59.33201 16.83733 38057 ft 484 kts 258°
2026-04-22 14:59 59.30775 16.71352 38064 ft 489 kts 252°
2026-04-22 15:00 59.28173 16.59042 38067 ft 490 kts 252°
2026-04-22 15:00 59.25552 16.46706 38071 ft 491 kts 252°
2026-04-22 15:01 59.22925 16.34399 38088 ft 491 kts 252°
2026-04-22 15:01 59.20281 16.22094 38066 ft 491 kts 251°
2026-04-22 15:02 59.17640 16.09889 38081 ft 491 kts 251°
2026-04-22 15:02 59.14982 15.97645 38089 ft 491 kts 250°
2026-04-22 15:03 59.12314 15.85415 38099 ft 490 kts 250°
2026-04-22 15:03 59.09624 15.73218 38113 ft 490 kts 249°
2026-04-22 15:04 59.06930 15.61052 38117 ft 490 kts 249°
2026-04-22 15:04 59.04232 15.48901 38114 ft 490 kts 249°
2026-04-22 15:05 59.01527 15.36794 38104 ft 490 kts 249°
2026-04-22 15:05 58.98787 15.24635 38113 ft 490 kts 249°
2026-04-22 15:06 58.96043 15.12538 38127 ft 490 kts 248°
2026-04-22 15:06 58.93294 15.00438 38136 ft 491 kts 248°
2026-04-22 15:07 58.90530 14.88348 38141 ft 491 kts 248°
2026-04-22 15:07 58.87773 14.76378 38148 ft 491 kts 248°
2026-04-22 15:08 58.84964 14.64247 38134 ft 491 kts 247°
2026-04-22 15:08 58.82161 14.52219 38153 ft 491 kts 247°
2026-04-22 15:09 58.79348 14.40211 38177 ft 491 kts 246°
2026-04-22 15:09 58.76538 14.28290 38050 ft 491 kts 246°
2026-04-22 15:10 58.75119 14.22294 37415 ft 492 kts 246°
2026-04-22 15:10 58.73702 14.16312 36774 ft 492 kts 246°
2026-04-22 15:10 58.72280 14.10329 36150 ft 492 kts 246°
2026-04-22 15:10 58.70856 14.04353 35539 ft 492 kts 246°
2026-04-22 15:11 58.69430 13.98378 34923 ft 492 kts 246°
2026-04-22 15:11 58.68002 13.92412 34322 ft 492 kts 246°
2026-04-22 15:11 58.66567 13.86448 33717 ft 490 kts 246°
2026-04-22 15:11 58.65139 13.80535 33219 ft 485 kts 246°
2026-04-22 15:12 58.63728 13.74699 32596 ft 479 kts 246°
2026-04-22 15:12 58.62333 13.68938 31980 ft 473 kts 246°
2026-04-22 15:12 58.60951 13.63240 31375 ft 468 kts 246°
2026-04-22 15:12 58.59585 13.57629 30787 ft 463 kts 246°
2026-04-22 15:13 58.58225 13.52065 30125 ft 459 kts 246°
2026-04-22 15:13 58.56870 13.46549 29422 ft 455 kts 246°
2026-04-22 15:13 58.55529 13.41095 28765 ft 449 kts 247°
2026-04-22 15:13 58.54125 13.35795 28104 ft 445 kts 240°
2026-04-22 15:14 58.52351 13.30993 27455 ft 440 kts 230°
2026-04-22 15:14 58.50218 13.26832 26814 ft 436 kts 220°
2026-04-22 15:14 58.47883 13.23190 26171 ft 431 kts 219°
2026-04-22 15:14 58.45566 13.19604 25549 ft 426 kts 219°
2026-04-22 15:15 58.43281 13.16052 24973 ft 422 kts 219°
2026-04-22 15:15 58.41016 13.12526 24413 ft 417 kts 219°
2026-04-22 15:15 58.38793 13.09067 23853 ft 413 kts 219°
2026-04-22 15:15 58.36561 13.05604 23226 ft 409 kts 219°
2026-04-22 15:16 58.34369 13.02213 22627 ft 404 kts 219°
2026-04-22 15:16 58.32194 12.98860 22009 ft 400 kts 219°
2026-04-22 15:16 58.30037 12.95547 21466 ft 396 kts 219°
2026-04-22 15:16 58.27936 12.92329 20907 ft 391 kts 220°
2026-04-22 15:17 58.25825 12.89098 20363 ft 387 kts 220°
2026-04-22 15:17 58.23740 12.85910 19826 ft 383 kts 220°
2026-04-22 15:17 58.21670 12.82745 19301 ft 379 kts 220°
2026-04-22 15:17 58.19627 12.79622 18786 ft 375 kts 220°
2026-04-22 15:18 58.17607 12.76538 18238 ft 372 kts 221°
2026-04-22 15:18 58.15600 12.73478 17677 ft 368 kts 221°
2026-04-22 15:18 58.13617 12.70461 17112 ft 364 kts 221°
2026-04-22 15:18 58.11654 12.67480 16558 ft 360 kts 221°
2026-04-22 15:19 58.09706 12.64528 16021 ft 357 kts 221°
2026-04-22 15:19 58.07776 12.61608 15496 ft 354 kts 221°
2026-04-22 15:19 58.05864 12.58718 14989 ft 351 kts 221°
2026-04-22 15:19 58.03966 12.55852 14494 ft 347 kts 222°
2026-04-22 15:20 58.02722 12.53974 14166 ft 345 kts 222°
2026-04-22 15:20 58.00220 12.50213 13447 ft 341 kts 222°
2026-04-22 15:20 57.98372 12.47443 12898 ft 338 kts 222°
2026-04-22 15:20 57.96536 12.44689 12369 ft 336 kts 222°
2026-04-22 15:21 57.94715 12.41959 11843 ft 333 kts 223°
2026-04-22 15:21 57.92931 12.39287 11591 ft 321 kts 223°
2026-04-22 15:21 57.91214 12.36728 11327 ft 311 kts 223°
2026-04-22 15:21 57.89534 12.34225 10940 ft 307 kts 223°
2026-04-22 15:22 57.87865 12.31732 10576 ft 305 kts 223°
2026-04-22 15:22 57.86207 12.29256 10236 ft 303 kts 223°
2026-04-22 15:22 57.84566 12.26808 9864 ft 301 kts 223°
2026-04-22 15:22 57.82928 12.24370 9465 ft 299 kts 223°
2026-04-22 15:23 57.81304 12.21957 9092 ft 298 kts 223°
2026-04-22 15:23 57.79686 12.19560 8723 ft 295 kts 223°
2026-04-22 15:23 57.78084 12.17190 8382 ft 292 kts 223°
2026-04-22 15:23 57.76497 12.14839 8047 ft 289 kts 223°
2026-04-22 15:24 57.74949 12.12555 7901 ft 277 kts 223°
2026-04-22 15:24 57.73462 12.10371 7787 ft 267 kts 223°
2026-04-22 15:24 57.72031 12.08266 7659 ft 256 kts 223°
2026-04-22 15:24 57.70654 12.06245 7509 ft 247 kts 223°
2026-04-22 15:25 57.69337 12.04309 7274 ft 241 kts 223°
2026-04-22 15:25 57.68017 12.02364 6922 ft 241 kts 223°
2026-04-22 15:25 57.66688 12.00401 6589 ft 240 kts 223°
2026-04-22 15:25 57.65402 11.98507 6216 ft 238 kts 222°
2026-04-22 15:26 57.64100 11.96600 5898 ft 237 kts 222°
2026-04-22 15:26 57.62808 11.94707 5725 ft 235 kts 222°
2026-04-22 15:26 57.61526 11.92827 5572 ft 231 kts 222°
2026-04-22 15:26 57.60282 11.91019 5410 ft 222 kts 220°
2026-04-22 15:27 57.58917 11.89745 5261 ft 219 kts 199°
2026-04-22 15:27 57.57410 11.89397 5114 ft 220 kts 178°
2026-04-22 15:27 57.55925 11.90008 4995 ft 220 kts 158°
2026-04-22 15:27 57.54629 11.91502 4881 ft 219 kts 137°
2026-04-22 15:28 57.53678 11.93685 4729 ft 217 kts 117°
2026-04-22 15:28 57.53031 11.96211 4613 ft 216 kts 112°
2026-04-22 15:28 57.52390 11.98727 4464 ft 215 kts 113°
2026-04-22 15:28 57.51758 12.01180 4345 ft 207 kts 113°
2026-04-22 15:29 57.51146 12.03569 4212 ft 204 kts 112°
2026-04-22 15:29 57.50539 12.05945 4091 ft 203 kts 112°
2026-04-22 15:29 57.49943 12.08327 3966 ft 202 kts 108°
2026-04-22 15:30 57.50086 12.12396 3751 ft 180 kts 55°
2026-04-22 15:30 57.51130 12.14270 3537 ft 143 kts 21°
2026-04-22 15:30 57.52015 12.15066 3366 ft 141 kts 20°
2026-04-22 15:30 57.52894 12.15858 3186 ft 140 kts 19°
2026-04-22 15:31 57.53768 12.16647 3003 ft 139 kts 19°
2026-04-22 15:31 57.54636 12.17430 2818 ft 139 kts 18°
2026-04-22 15:31 57.55504 12.18214 2622 ft 139 kts 18°
2026-04-22 15:31 57.56371 12.18997 2429 ft 138 kts 18°
2026-04-22 15:32 57.57231 12.19774 2243 ft 137 kts 18°
2026-04-22 15:32 57.58092 12.20553 2058 ft 138 kts 19°
2026-04-22 15:32 57.58960 12.21337 1848 ft 139 kts 18°
2026-04-22 15:32 57.59833 12.22127 1668 ft 140 kts 18°
2026-04-22 15:33 57.60705 12.22918 1468 ft 139 kts 18°
2026-04-22 15:33 57.61588 12.23715 1298 ft 143 kts 20°
2026-04-22 15:33 57.62181 12.24253 1150 ft 144 kts 18°
2026-04-22 15:33 57.63074 12.25066 954 ft 141 kts 20°
2026-04-22 15:34 57.63954 12.25869 750 ft 142 kts 18°
2026-04-22 15:34 57.64845 12.26672 569 ft 142 kts 17°
2026-04-22 15:34 57.65699 12.27445 503 ft 118 kts 25°
2026-04-22 15:34 57.66250 12.27939 510 ft 62 kts 26°
2026-04-22 15:35 57.66467 12.28143 511 ft 20 kts 27°
2026-04-22 15:35 57.66581 12.28274 512 ft 19 kts 39°
2026-04-22 15:35 57.66659 12.28425 512 ft 14 kts 52°
2026-04-22 15:35 57.66716 12.28572 512 ft 13 kts 56°
2026-04-22 15:36 57.66764 12.28707 513 ft 12 kts 56°
2026-04-22 15:36 57.66815 12.28816 513 ft 10 kts 41°
2026-04-22 15:36 57.66822 12.28917 516 ft 6 kts 113°
2026-04-22 15:36 57.66798 12.29010 516 ft 9 kts 116°
2026-04-22 15:37 57.66770 12.29116 516 ft 9 kts 116°
2026-04-22 15:37 57.66743 12.29209 516 ft 5 kts 115°
2026-04-22 15:37 57.66731 12.29256 516 ft 0 kts 116°
2026-04-22 15:37 57.66730 12.29258 516 ft 0 kts 117°
2026-04-22 15:38 57.66730 12.29260 516 ft 0 kts 117°